This demonstration page uses our WeatherBlox Daily Observations layout. Learn more.

38.89511, -77.03637

Hourly Observations for October 31, 2015

Temp ( °F °C ) Dew Point ( °F °C ) Humidity (%) Winds ( mph kmh ) Pressure ( in mb ) Visibility ( mi km ) Precip ( " mm )
12:52 am 00:52 Clear 50 10 37 2.8 61 61 NW 10 17 30.16 1022 10 16.0934 0 0
1:52 am 01:52 Clear 47 8.3 37 2.8 69 69 NNW 5 7 30.18 1022 10 16.0934 0 0
2:52 am 02:52 Clear 46 7.8 38 3.3 73 73 NE 5 7 30.19 1022 10 16.0934 0 0
3:52 am 03:52 Clear 45 7.2 38 3.3 77 77 NNW 8 13 30.19 1023 10 16.0934 0 0
4:52 am 04:52 Clear 44 6.7 37 2.8 76 76 NNW 6 9 30.2 1023 10 16.0934 0 0
5:52 am 05:52 Clear 44 6.7 37 2.8 76 76 N 5 7 30.21 1023 10 16.0934 0 0
6:52 am 06:52 Clear 45 7.2 38 3.3 77 77 Calm 30.23 1024 10 16.0934 0 0
7:52 am 07:52 Partly Cloudy 43 6.1 37 2.8 80 80 N 3 6 30.23 1024 10 16.0934 0 0
8:52 am 08:52 Partly Cloudy 47 8.3 41 5 80 80 Calm 30.25 1024 10 16.0934 0 0
9:52 am 09:52 Partly Cloudy 50 10 39 3.9 66 66 NE 5 7 30.26 1025 10 16.0934 0 0
10:52 am 10:52 Mostly Cloudy 54 12.2 40 4.4 59 59 VRB 3 6 30.25 1024 10 16.0934 0 0
11:52 am 11:52 Mostly Cloudy 55 12.8 40 4.4 57 57 S 5 7 30.24 1024 10 16.0934 0 0
12:52 pm 12:52 Mostly Cloudy 58 14.4 40 4.4 51 51 S 9 15 30.22 1023 10 16.0934 0 0
1:52 pm 13:52 Mostly Cloudy 59 15 41 5 51 51 S 8 13 30.18 1022 10 16.0934 0 0
2:52 pm 14:52 Mostly Cloudy 60 15.6 39 3.9 46 46 S 9 15 30.15 1021 10 16.0934 0 0
3:52 pm 15:52 Mostly Cloudy 58 14.4 43 6.1 58 58 S 8 13 30.13 1020 10 16.0934 0 0
4:52 pm 16:52 Mostly Cloudy 58 14.4 41 5 53 53 SSW 9 15 30.14 1021 10 16.0934 0 0
5:52 pm 17:52 Cloudy 57 13.9 43 6.1 60 60 S 9 15 30.14 1021 10 16.0934 0 0
6:52 pm 18:52 Cloudy 57 13.9 43 6.1 60 60 S 8 13 30.14 1021 10 16.0934 0 0
7:52 pm 19:52 Cloudy 57 13.9 45 7.2 64 64 S 10 17 30.13 1020 10 16.0934 0 0
8:52 pm 20:52 Cloudy 55 12.8 44 6.7 67 67 SSW 7 11 30.11 1020 10 16.0934 0 0
9:52 pm 21:52 Cloudy 55 12.8 45 7.2 69 69 S 9 15 30.07 1018 10 16.0934 0 0
10:52 pm 22:52 Cloudy 55 12.8 44 6.7 67 67 S 8 13 30.06 1018 10 16.0934 0 0

Powered by AerisWeather